Regional Weather Roundup
Issued by NWS Kansas City/Pleasant Hill, MO

Home | Current Version | Previous Version | Text Only | Print | Product List | Glossary On
Versions: 1 2 3 4 5 6 7 8 9 10 11 12 13 14 15 16 17 18 19 20 21 22 23 24 25 26 27 28 29 30 31 32 33 34 35 36 37 38 39 40 41 42 43 44 45 46 47 48 49 50
000
ASUS43 KEAX 062211
RWREAX

WEATHER ROUNDUP FOR EASTERN KANSAS AND NORTHWEST MISSOURI
NATIONAL WEATHER SERVICE KANSAS CITY/PLEASANT HILL MO
500 PM CDT WED MAY 06 2015

KSZ040-057-103>105-MOZ028-029-037-043-062300-
...KANSAS CITY METROPOLITAN AREA...

CITY           SKY/WX    TMP DP  RH WIND       PRES   REMARKS
K.C. INTL      CLOUDY    66  61  84 SE14      29.90F
K.C. DOWNTOWN  CLOUDY    69  62  78 E7        29.90F
LEES SUMMIT    MOSUNNY   71  64  78 SE12      29.92F
OLATHE - IXD   CLOUDY    70  63  78 SE13      29.89F
OLATHE - OJC   PTSUNNY   70  65  84 SE13G21   29.89F
LAWRENCE       CLOUDY    70  60  70 SE21      29.87F

$$

MOZ001>008-011>017-020>025-030>033-038>040-044>046-053-054-062300-
...NORTHERN AND CENTRAL MISSOURI...

CITY           SKY/WX    TMP DP  RH WIND       PRES   REMARKS
ST. JOSEPH     CLOUDY    70  58  65 S29G35    29.88F
MOSBY          CLOUDY    64  63  94 E5        29.92F
HARRISONVILLE  MOSUNNY   77  63  61 SE15G21   29.93
WARRENSBURG    PTSUNNY   73  61  64 SE12      29.93F
WHITEMAN AFB   MOSUNNY   76  59  55 S18G28    29.94F
CLINTON        MOSUNNY   79  63  57 S17G24    29.95F
SEDALIA        PTSUNNY   78  59  51 S22G28    29.96F
WARSAW         NOT AVBL
MARSHALL       PTSUNNY   79  64  61 SE12G22   29.96F
CHILLICOTHE      N/A     74  60  61 S10G23    29.95F
KIRKSVILLE     PTSUNNY   73  60  63 S15       29.99F

$$

MOZ041-047>049-056>058-063>065-088>090-097-062300-
...EASTERN AND SOUTHERN MISSOURI...

CITY           SKY/WX    TMP DP  RH WIND       PRES   REMARKS
ST. LOUIS INTL MOSUNNY   86  53  32 S10G24    30.02F
SPIRIT OF STL  MOSUNNY   83  51  33 SE12G23   30.00F
COLUMBIA       PTSUNNY   78  59  51 S8        29.98F
JEFFERSON CITY CLOUDY    80  54  40 S12       29.97F
MEXICO         MOSUNNY   79  68  69 S9        30.00F
HANNIBAL       PTSUNNY   81  54  39 S12G17    30.00F
ROLLA          MOSUNNY   78  54  43 S15       30.00F
LEBANON        SUNNY     79  52  38 SE18      30.00F
OSAGE BEACH    PTSUNNY   81  55  41 S12       29.98F
SPRINGFIELD    SUNNY     77  54  44 SE20G31   29.98F
BRANSON        MOSUNNY   79  55  44 SE13G21   30.01F
NEVADA         SUNNY     79  59  50 SE20G28   29.93F
JOPLIN         PTSUNNY   78  56  46 S20G30    29.92S
WEST PLAINS    PTSUNNY   79  52  38 SE10G20   30.04F

$$

IAZ060-094-KSZ022-034>040-054-083-096-NEZ052-066-093-062300-
...KANSAS...SOUTHEAST NEBRASKA AND IOWA...

CITY           SKY/WX    TMP DP  RH WIND       PRES   REMARKS
TOPEKA         CLOUDY    72  62  71 SE22G29   29.83F
MANHATTAN      CLOUDY    71  64  78 S23G33    29.74F
EMPORIA        CLOUDY    72  64  76 SE23G33   29.79F
CHANUTE        LGT RAIN  76  63  64 S22G30    29.87F
WICHITA        PTSUNNY   74  66  76 SE30G36   29.73F
OMAHA          CLOUDY    71  61  70 SE21G32   29.78F
LINCOLN        CLOUDY    71  62  73 S28G38    29.73F
FALLS CITY     CLOUDY    71  60  68 S26G41    29.81F
LAMONI         PTSUNNY   73  61  65 S20G29    29.92F
DES MOINES     CLOUDY    73  57  57 S15G25    29.90F

$$



USA.gov is the U.S. government's official web portal to all federal, state and local government web resources and services.